[[{"header":{"parameterUnit":"m.s-1","parameterCategory":1,"la1":30.2991,"la2":30.254,"lo1":-89.0895,"lo2":-89.0444,"dy":0.0017,"dx":0.0017,"nx":28,"ny":28,"refTime":"2024-04-15T03:00:00:Z","depth":0,"parameterNumber":2,"parameterNumberName":"U-component_of_WINDS"},"data":[0,0,0,0,0,0,0,0,0,0,0,0,0,0,0,0,0,0,0,0,0,0,0,0,0,0,0,0,0,0,0,0,0,0,0,0,0,0,0,0,0,0,0,0,0,0,0,0,0,0,0,0,0,0,0,0,0,0,-2.2045,-2.2044,0,-2.2029,-2.2028,-2.2028,-2.199,-2.1989,-2.1988,-2.1987,-2.1973,-2.1973,-2.1973,0,0,0,0,0,0,0,0,0,0,0,0,0,-2.2044,-2.2044,-2.2045,-2.2044,-2.2044,-2.2029,-2.2028,-2.2028,-2.199,-2.1989,-2.1988,-2.1987,-2.1972,-2.1973,-2.1973,0,0,0,0,0,0,0,0,0,0,0,0,0,-2.2038,-2.2044,-2.2045,-2.2023,-2.2021,-2.2029,-2.2028,-2.2028,-2.199,-2.1989,-2.1988,-2.1986,-2.1972,-2.1973,-2.1973,-2.2001,0,0,-2.1975,-2.1975,0,0,0,0,0,0,0,0,-2.2038,-2.2038,-2.2027,-2.2025,-2.2022,-2.201,-2.2023,-2.2019,-2.199,-2.2002,-2.1987,-2.1986,-2.1986,-2.1985,-2.1985,-2.2,-2.2,-2.1975,-2.1975,-2.1976,-2.1976,0,0,0,0,0,0,0,-2.2038,-2.2038,-2.2038,-2.2026,-2.2024,-2.2015,-2.2013,-2.2022,-2.2001,-2.2001,-2.1998,-2.1996,-2.1985,-2.1985,-2.1985,-2.2,-2.1975,-2.1976,-2.1976,-2.1976,-2.2036,-2.2038,0,0,0,0,0,0,-2.2042,-2.2039,-2.2039,-2.2038,-2.2027,-2.2016,-2.2013,-2.2015,-2.2001,-2.1997,-2.1998,-2.1995,-2.1984,-2.1984,-2.1984,-2.2014,-2.1976,-2.1976,-2.1976,-2.2035,-2.2037,-2.2038,0,0,0,0,0,0,-2.2042,-2.2042,-2.2039,-2.2038,-2.2036,-2.2017,-2.2019,-2.2015,-2.2015,-2.1998,-2.1995,-2.2001,-2.1983,-2.1983,-2.1997,-2.2013,-2.1976,-2.1977,-2.2034,-2.2036,-2.2037,-2.2077,0,0,0,0,0,0,-2.2042,-2.2042,-2.2052,-2.2038,-2.2037,-2.2052,-2.202,-2.2016,-2.2016,-2.2012,-2.2001,-2.1998,-2.1982,-2.1996,-2.1997,-2.2014,-2.1977,-2.2032,-2.2034,-2.2037,-2.2074,-2.208,-2.2085,0,0,0,0,0,-2.2042,-2.2064,-2.2053,-2.2053,-2.2049,-2.2053,-2.2053,-2.2034,-2.2018,-2.2028,-2.2017,-2.1998,-2.2012,-2.1998,-2.1999,-2.2016,-2.2031,-2.2034,-2.2037,-2.2071,-2.2078,-2.2085,0,0,0,0,0,0,-2.2082,-2.2062,-2.2049,-2.2067,-2.2062,-2.2047,-2.2059,-2.2042,-2.2042,-2.2039,-2.2016,-2.2014,-2.2031,-2.2025,-2.201,-2.2041,-2.2018,-2.2022,-2.2044,-2.2051,-2.2056,-2.2057,-2.1978,0,0,0,0,0,-2.2092,-2.2097,-2.208,-2.2098,-2.2096,-2.2078,-2.2079,-2.2066,-2.206,-2.2057,-2.2047,-2.2043,-2.2046,-2.2048,-2.2051,-2.2073,-2.207,-2.2085,-2.2091,-2.2095,-2.2098,-2.2109,-2.2115,-2.2047,-2.2047,-2.2047,0,0,-2.2115,-2.2105,-2.2109,-2.2106,-2.21,-2.2106,-2.2076,-2.2084,-2.2088,-2.2059,-2.207,-2.2063,-2.2057,-2.2075,-2.2082,-2.207,-2.2116,-2.2099,-2.2103,-2.2103,-2.2112,-2.2119,-2.2125,-2.2049,-2.2049,-2.2049,0,0,-2.2158,-2.2151,-2.2165,-2.216,-2.2152,-2.2139,-2.2143,-2.213,-2.2124,-2.2135,-2.2113,-2.2118,-2.2125,-2.212,-2.2119,-2.2162,-2.2144,-2.2163,-2.2191,-2.2202,-2.2208,-2.2212,-2.2226,-2.2232,-2.2166,-2.2166,-2.2166,0,-2.2187,-2.2194,-2.2174,-2.2183,-2.2182,-2.2155,-2.2169,-2.2165,-2.2159,-2.2159,-2.2146,-2.2152,-2.2146,-2.2162,-2.2173,-2.2173,-2.2176,-2.2164,-2.2208,-2.2213,-2.2217,-2.223,-2.2236,-2.2169,-2.2168,-2.2168,-2.2168,0,-2.223,-2.2235,-2.2248,-2.2241,-2.2241,-2.2253,-2.2235,-2.2238,-2.2225,-2.2214,-2.2226,-2.2218,-2.2218,-2.2221,-2.2208,-2.2236,-2.2228,-2.2212,-2.2188,-2.2226,-2.2238,-2.2243,-2.2172,-2.2171,-2.217,-2.217,0,0,-2.2296,-2.2278,-2.2283,-2.2279,-2.2269,-2.2273,-2.2283,-2.2282,-2.2285,-2.2282,-2.229,-2.2296,-2.2281,-2.2279,-2.2266,-2.2276,-2.2309,-2.2259,-2.2258,-2.2267,-2.2338,-2.2349,-2.2355,-2.2298,-2.2299,-2.23,-2.2338,0,-2.2336,-2.2351,-2.2334,-2.2354,-2.2358,-2.2334,-2.2343,-2.2337,-2.2328,-2.2331,-2.2322,-2.2326,-2.2306,-2.2305,-2.2314,-2.2303,-2.2323,-2.2301,-2.2305,-2.2306,-2.2306,-2.2362,-2.2374,-2.241,-2.2343,-2.2344,-2.2344,0,-2.2384,-2.2382,-2.2402,-2.2389,-2.2391,-2.2399,-2.2396,-2.24,-2.2394,-2.2386,-2.2385,-2.2369,-2.2379,-2.2357,-2.237,-2.2355,-2.2356,-2.2352,-2.2352,-2.2351,-2.2326,-2.2361,-2.2421,-2.2426,-2.2352,-2.2351,-2.2351,0,-2.2429,-2.2431,-2.2443,-2.2441,-2.2427,-2.2434,-2.2428,-2.2421,-2.2421,-2.242,-2.242,-2.242,-2.242,-2.242,-2.2405,-2.239,-2.242,-2.2397,-2.2414,-2.2414,-2.242,-2.2419,-2.248,-2.2423,-2.2423,-2.2423,-2.2423,0,-2.2474,-2.2487,-2.2463,-2.247,-2.2484,-2.2465,-2.2479,-2.2471,-2.2465,-2.247,-2.245,-2.2456,-2.2435,-2.2439,-2.2428,-2.244,-2.244,-2.2435,-2.2431,-2.2435,-2.2436,-2.2435,-2.2431,-2.2424,-2.2424,-2.2424,-2.2423,0,-2.2526,-2.2511,-2.2522,-2.2508,-2.2505,-2.2515,-2.2504,-2.251,-2.25,-2.2507,-2.2508,-2.2492,-2.2495,-2.248,-2.2482,-2.2474,-2.2491,-2.2484,-2.2493,-2.249,-2.2508,-2.2506,-2.2569,-2.2576,-2.2516,-2.2516,-2.2517,0,-2.2555,-2.2564,-2.2551,-2.2553,-2.2548,-2.2552,-2.2552,-2.2534,-2.2535,-2.2529,-2.2536,-2.2538,-2.2538,-2.2545,-2.2533,-2.2534,-2.2526,-2.2548,-2.2526,-2.253,-2.2525,-2.2524,-2.2525,-2.2552,-2.2553,-2.2554,-2.2554,0,-2.2608,-2.26,-2.2601,-2.2599,-2.26,-2.2598,-2.2594,-2.2597,-2.2577,-2.258,-2.2583,-2.2583,-2.2584,-2.2586,-2.2584,-2.2579,-2.2563,-2.2562,-2.2565,-2.2569,-2.2573,-2.257,-2.2504,-2.256,-2.2559,-2.2559,-2.2559,-2.2558,-2.2649,-2.2655,-2.2647,-2.2648,-2.2644,-2.2641,-2.2646,-2.2636,-2.2638,-2.2637,-2.2626,-2.2631,-2.2625,-2.2621,-2.2618,-2.2622,-2.2611,-2.2617,-2.2618,-2.262,-2.2622,-2.2574,-2.2622,-2.2622,-2.2621,-2.2621,-2.2621,0,-2.2699,-2.2693,-2.2695,-2.269,-2.2691,-2.2676,-2.2672,-2.2674,-2.2678,-2.2673,-2.2674,-2.2677,-2.2679,-2.2668,-2.2669,-2.2674,-2.2666,-2.2674,-2.2673,-2.2672,-2.2632,-2.2628,-2.268,-2.268,-2.268,-2.268,-2.268,-2.268,-2.2726,-2.2736,-2.2727,-2.2735,-2.2729,-2.2732,-2.2731,-2.2729,-2.2725,-2.2729,-2.273,-2.2723,-2.2716,-2.2715,-2.2716,-2.2713,-2.2714,-2.2724,-2.2718,-2.2681,-2.2675,-2.2669,-2.2665,-2.2725,-2.2725,-2.2758,-2.2758,-2.2758]},{"header":{"parameterUnit":"m.s-1","parameterCategory":1,"la1":30.2991,"la2":30.254,"lo1":-89.0895,"lo2":-89.0444,"dy":0.0017,"dx":0.0017,"nx":28,"ny":28,"refTime":"2024-04-15T03:00:00:Z","depth":0,"parameterNumber":3,"parameterNumberName":"V-component_of_WINDS"},"data":[0,0,0,0,0,0,0,0,0,0,0,0,0,0,0,0,0,0,0,0,0,0,0,0,0,0,0,0,0,0,0,0,0,0,0,0,0,0,0,0,0,0,0,0,0,0,0,0,0,0,0,0,0,0,0,0,0,0,3.0376,3.0376,0,3.0365,3.0365,3.0364,3.035,3.035,3.035,3.035,3.0337,3.0337,3.0337,0,0,0,0,0,0,0,0,0,0,0,0,0,3.0384,3.0384,3.0376,3.0376,3.0376,3.0365,3.0365,3.0364,3.035,3.035,3.035,3.035,3.0337,3.0337,3.0337,0,0,0,0,0,0,0,0,0,0,0,0,0,3.0377,3.0384,3.0376,3.0367,3.0366,3.0365,3.0365,3.0364,3.035,3.035,3.035,3.0349,3.0337,3.0337,3.0337,3.0343,0,0,3.0337,3.0336,0,0,0,0,0,0,0,0,3.0378,3.0377,3.0369,3.0368,3.0367,3.0359,3.0363,3.0357,3.0351,3.0357,3.035,3.0349,3.0345,3.0344,3.0342,3.0342,3.0341,3.0336,3.0336,3.0336,3.0336,0,0,0,0,0,0,0,3.0378,3.0378,3.0371,3.0369,3.0367,3.0364,3.0362,3.0362,3.0353,3.0356,3.0355,3.0354,3.0344,3.0343,3.0342,3.0341,3.0337,3.0336,3.0336,3.0336,3.0345,3.0345,0,0,0,0,0,0,3.038,3.0378,3.0372,3.0371,3.0372,3.0364,3.0362,3.0362,3.0353,3.0351,3.0354,3.0353,3.0343,3.0342,3.0342,3.0347,3.0336,3.0336,3.0336,3.0344,3.0345,3.0345,0,0,0,0,0,0,3.038,3.038,3.0372,3.0374,3.0373,3.0364,3.0363,3.0362,3.036,3.0351,3.0349,3.0354,3.0343,3.0342,3.0342,3.0347,3.0336,3.0336,3.0344,3.0344,3.0345,3.0359,0,0,0,0,0,0,3.0381,3.038,3.0382,3.0374,3.0373,3.0374,3.0364,3.0362,3.036,3.0359,3.0351,3.0349,3.0342,3.0343,3.0342,3.0346,3.0336,3.0343,3.0344,3.0345,3.0358,3.036,3.0362,0,0,0,0,0,3.0381,3.0387,3.0382,3.0382,3.0376,3.0374,3.0373,3.0365,3.036,3.0362,3.0357,3.035,3.0346,3.0343,3.0342,3.0346,3.0343,3.0344,3.0345,3.0357,3.036,3.0362,0,0,0,0,0,0,3.0395,3.0385,3.0381,3.0384,3.038,3.0372,3.0374,3.0368,3.0365,3.0364,3.0354,3.0353,3.0354,3.035,3.0347,3.0351,3.0344,3.0344,3.0354,3.0356,3.0357,3.0358,3.0336,0,0,0,0,0,3.0398,3.0398,3.039,3.0393,3.0391,3.0383,3.0382,3.0376,3.0372,3.037,3.0364,3.036,3.0357,3.0356,3.0354,3.0357,3.0355,3.036,3.0362,3.0363,3.0364,3.0365,3.0367,3.0347,3.0347,3.0347,0,0,3.0405,3.04,3.0401,3.0396,3.0392,3.0392,3.0382,3.0382,3.0381,3.037,3.037,3.0366,3.036,3.0362,3.0363,3.0359,3.0369,3.0364,3.0365,3.0365,3.0366,3.0368,3.037,3.0348,3.0348,3.0348,0,0,3.0418,3.0414,3.0417,3.0413,3.0408,3.0402,3.0403,3.0395,3.0392,3.0392,3.0384,3.0383,3.0379,3.0375,3.0373,3.0384,3.0378,3.0384,3.0392,3.0394,3.0395,3.0397,3.0401,3.0402,3.0384,3.0384,3.0384,0,3.0428,3.0427,3.0419,3.0419,3.0418,3.0407,3.041,3.0406,3.04,3.0399,3.0395,3.039,3.0386,3.0387,3.0389,3.0388,3.0388,3.0385,3.0396,3.0397,3.0398,3.0402,3.0403,3.0385,3.0385,3.0385,3.0385,0,3.0439,3.0439,3.0441,3.0436,3.0434,3.0436,3.0427,3.0427,3.0421,3.0416,3.0416,3.041,3.0406,3.0406,3.04,3.0406,3.0404,3.0398,3.039,3.0401,3.0404,3.0406,3.0386,3.0386,3.0386,3.0385,0,0,3.046,3.045,3.0452,3.0449,3.0442,3.0441,3.0442,3.0439,3.0438,3.0434,3.0434,3.0432,3.0426,3.0423,3.0417,3.0418,3.0427,3.0412,3.0412,3.0415,3.0433,3.0438,3.044,3.0423,3.0423,3.0423,3.0434,0,3.0472,3.0473,3.0466,3.0469,3.0468,3.0458,3.0459,3.0455,3.045,3.0448,3.0442,3.044,3.0433,3.0432,3.0432,3.0426,3.0431,3.0425,3.0423,3.0423,3.0425,3.0441,3.0446,3.0456,3.0435,3.0435,3.0435,0,3.0486,3.0483,3.0486,3.0479,3.0478,3.0479,3.0475,3.0474,3.0469,3.0465,3.0462,3.0455,3.0454,3.0447,3.0446,3.0443,3.0441,3.0438,3.0438,3.0438,3.043,3.0441,3.0459,3.0461,3.0437,3.0437,3.0437,0,3.0502,3.0498,3.05,3.0498,3.0489,3.049,3.0486,3.0481,3.0479,3.0475,3.0474,3.047,3.0468,3.0465,3.0457,3.0452,3.0457,3.0449,3.0454,3.0454,3.0456,3.0456,3.0474,3.0454,3.0454,3.0454,3.0454,0,3.0516,3.0518,3.0507,3.0508,3.051,3.0501,3.0503,3.0498,3.0493,3.0493,3.0484,3.0483,3.0472,3.0471,3.0464,3.0465,3.0464,3.046,3.0459,3.0462,3.0462,3.0461,3.046,3.0455,3.0455,3.0455,3.0454,0,3.0534,3.0526,3.0527,3.0519,3.0517,3.0519,3.0512,3.0512,3.0506,3.0506,3.0505,3.0496,3.0493,3.0485,3.048,3.0476,3.0478,3.0475,3.048,3.0479,3.0484,3.0484,3.0502,3.0504,3.0483,3.0483,3.0484,0,3.0544,3.0545,3.0537,3.0536,3.0533,3.0532,3.053,3.0521,3.0519,3.0513,3.0514,3.0511,3.0508,3.0504,3.0497,3.0493,3.0489,3.0496,3.0489,3.0491,3.049,3.049,3.049,3.0498,3.0498,3.0498,3.0498,0,3.0562,3.0558,3.0556,3.0552,3.055,3.0547,3.0543,3.0543,3.0533,3.0531,3.0529,3.0527,3.0522,3.0519,3.0514,3.0509,3.0502,3.0501,3.0502,3.0505,3.0508,3.0506,3.0485,3.05,3.05,3.05,3.05,3.05,3.0576,3.0577,3.0571,3.0569,3.0565,3.0562,3.0562,3.0556,3.0554,3.0549,3.0544,3.0542,3.0536,3.0528,3.0524,3.0523,3.0519,3.052,3.052,3.0521,3.0522,3.0508,3.0521,3.0521,3.0521,3.0521,3.0521,0,3.0594,3.059,3.0588,3.0583,3.0581,3.0574,3.057,3.0569,3.0567,3.0562,3.0559,3.0556,3.0553,3.0545,3.0541,3.0541,3.0537,3.054,3.054,3.0539,3.0526,3.0526,3.0543,3.0543,3.0543,3.0543,3.0543,3.0543,3.0603,3.0604,3.06,3.0599,3.0594,3.0592,3.059,3.0587,3.0583,3.058,3.0577,3.0572,3.0566,3.0561,3.0558,3.0555,3.0554,3.0558,3.0555,3.0542,3.054,3.0538,3.0538,3.0558,3.0558,3.0568,3.0568,3.0569]}]]